Location: Dreilärchen
(47.9312°N, 8.6113°E)
Time: 23:20:11
(UTC+00:00)

SL-14 R/B - Pass Details

Date: 26 May 2022
Orbit: 517 x 551 km, 82.4° (Epoch: 02 July)

Event Time Altitude Azimuth Distance (km) Brightness Sun altitude
Exits shadow 01:03:27 25° 257° (WSW) 1,091 4.5 -17.4°
Maximum altitude 01:04:32 29° 287° (WNW) 982 4.5 -17.3°
Drops below altitude 10° 01:07:59 10° 349° (N) 1,771 6.7 -17.0°
Sets 01:10:20 0° 1° (N) 2,661 8.0 -16.9°
